Погода в Песочне

Россия / Рязанская область     54°06′33″N   40°49′22″E
темп.,
°C
ветер,
м/с
пор.,
м/с
влажн.,
%
обл.,
%
осадки,
мм/ч
давл.,
гПа
погр.,
м
15 мая, сб
сб1500:00+17ююв3689100 0.1 1012117
03:00+16юв3492100 0.6 101154
06:00+17ююв3892100 0.0 1010189
09:00+21ю81483100 0.0 1012783
12:00+19ююз111887100 4.1 10131025
15:00+21ю68735 5.1 1012689
18:00+20ю6107944 0.6 1012620
21:00+16юз35855 0.8 101364
16 мая, вс
вс1600:00+14ююз34880 0.0 101454
03:00+13ююз34900 0.0 101465
06:00+14ююз368970 0.0 1015163
09:00+19юз45705 0.0 1015527
12:00+22юз47545 0.0 10151655
15:00+23юз464913 0.0 10151883
18:00+22зюз1265100 0.0 101552
21:00+17ссв116691 0.0 101511
17 мая, пн
пн1700:00+15вюв3381100 0.1 101530
03:00+14в3686100 0.2 101599
06:00+15в499090 0.4 1015200
09:00+21вюв57675 0.4 1015455
12:00+25юв575224 0.0 1014829
15:00+26юв5754100 0.0 1013953
18:00+23юв510665 0.0 1012364
21:00+18вюв412805 0.0 1012214
18 мая, вт
вт1800:00+18юв516700 0.0 1012292
03:00+17юв616615 0.0 1011318
06:00+16юв5146928 0.0 1011280
09:00+21юв613587 0.0 1010442
12:00+25ююв7115030 0.0 1010983
15:00+26юв712509 0.0 10081485
18:00+24ююв61265100 0.0 1008457
21:00+19ююв3679100 0.0 100891
19 мая, ср
ср1900:00+17ю2283100 0.0 100826
03:00+16ююз2287100 0.1 100818
06:00+17в3588100 0.1 1007142
09:00+19ююв61478100 0.1 10071118
12:00+19ююв91772100 0.2 10061191
15:00+15ю310883 3.7 1007470
18:00+18ю81480100 0.8 10061164
21:00+13ююз9148455 0.9 1007810